Date,TemperatureHighF,TemperatureAvgF,TemperatureLowF,DewpointHighF,DewpointAvgF,DewpointLowF,HumidityHigh,HumidityAvg,HumidityLow,PressureMaxIn,PressureMinIn,WindSpeedMaxMPH,WindSpeedAvgMPH,GustSpeedMaxMPH,PrecipitationSumIn
2013-6-1,90.0,78.8,64.8,67.6,63.9,59.8,89,62,42,30.05,29.90,8,3,14,0.00
2013-6-2,83.9,78.3,73.7,67.0,65.0,61.4,77,64,49,29.90,29.80,11,5,21,0.00
2013-6-3,77.1,71.2,59.4,66.5,58.5,44.4,83,65,49,30.01,29.85,6,2,10,0.00
2013-6-4,74.9,63.0,50.0,47.0,42.9,38.3,74,50,28,30.20,30.01,6,3,12,0.00
2013-6-5,77.8,65.1,49.8,50.2,45.3,40.7,79,51,32,30.28,30.10,6,2,10,0.00
2013-6-6,67.8,63.5,60.2,59.0,53.7,47.3,90,72,49,30.14,29.95,7,4,12,0.23
2013-6-7,64.8,63.4,61.1,62.5,60.5,58.3,95,90,80,29.95,29.75,5,2,10,0.17
2013-6-8,74.3,65.8,60.8,62.4,59.7,55.8,96,82,58,30.15,29.77,5,2,8,0.00
2013-6-9,80.8,67.8,53.8,60.2,55.6,52.1,98,69,39,30.26,30.15,6,2,9,0.00
2013-6-10,69.0,66.5,63.7,66.2,62.9,58.1,98,89,70,30.18,29.80,8,3,15,1.52
2013-6-11,76.2,69.1,64.8,67.7,64.2,59.3,98,85,64,29.86,29.75,8,3,12,0.36
2013-6-12,80.2,70.9,63.1,60.8,58.0,54.3,87,66,42,29.92,29.84,5,2,9,0.00
2013-6-13,75.1,66.4,58.4,69.0,61.7,56.4,95,85,69,29.87,29.48,7,3,15,1.02
2013-6-14,74.5,64.7,57.0,60.1,55.6,52.3,95,74,52,30.02,29.68,6,2,11,0.09
2013-6-15,78.7,67.6,55.0,59.5,55.0,51.2,95,67,40,30.11,30.01,6,2,12,0.00
2013-6-16,78.7,68.7,59.3,65.8,59.7,53.1,92,74,55,30.07,29.85,9,3,13,0.00
2013-6-17,85.7,74.1,64.3,66.7,61.3,54.0,94,68,34,29.98,29.89,7,2,11,0.00
2013-6-18,77.6,69.2,60.7,66.6,61.0,57.1,92,76,59,29.98,29.86,5,1,8,0.00
2013-6-19,76.6,67.1,56.9,57.0,50.3,43.1,81,58,34,30.22,29.98,4,2,10,0.00
2013-6-20,81.6,68.2,53.2,60.9,54.4,48.4,87,63,38,30.31,30.22,6,2,11,0.00
2013-6-21,82.7,72.5,59.5,61.8,58.9,56.3,92,64,46,30.34,30.25,7,2,12,0.00
2013-6-22,84.7,74.2,60.6,66.9,61.7,55.2,88,66,49,30.29,30.13,7,2,11,0.00
2013-6-23,88.7,79.0,67.4,69.6,66.3,58.0,91,67,36,30.22,30.07,7,3,12,0.00
2013-6-24,87.5,75.7,67.2,72.1,67.1,63.1,94,76,55,30.15,30.02,6,2,12,0.33
2013-6-25,87.0,75.2,65.7,71.8,67.5,63.8,95,78,52,30.06,29.88,7,2,11,0.19
2013-6-26,80.9,72.8,66.3,69.0,66.6,64.2,95,82,63,29.93,29.85,5,2,10,0.00
2013-6-27,83.3,71.8,65.0,71.7,67.5,64.1,98,87,58,29.87,29.58,6,2,9,1.02
2013-6-28,80.6,72.6,66.9,68.8,67.1,65.5,97,84,62,29.62,29.51,7,2,9,0.10
2013-6-29,82.4,71.9,64.0,66.9,64.1,60.1,98,79,48,29.73,29.52,10,2,12,0.05
2013-6-30,85.1,72.4,64.3,71.8,67.8,63.5,99,87,60,29.91,29.72,8,2,12,0.07